Wetterdaten: Woche 19.10.15 - 25.10.15 (KW43)
Datum Zeit Temperatur Luftfeuchte Luftdruck Niederschlag Windrichtung Sonnenschein Solar Wind
19.10.2015 00:00 5,1 C 96 % 1017,6 hPa 0,0 l/m N 0,00 h 0 W/m 0,0 km/h (0 Bft)
19.10.2015 01:00 4,9 C 97 % 1017,6 hPa 0,0 l/m NO 0,00 h 0 W/m 2,8 km/h (1 Bft)
19.10.2015 02:00 4,9 C 97 % 1017,6 hPa 0,0 l/m NO 0,00 h 0 W/m 2,9 km/h (1 Bft)
19.10.2015 03:00 4,8 C 97 % 1017,7 hPa 0,0 l/m NO 0,00 h 0 W/m 1,9 km/h (1 Bft)
19.10.2015 04:00 4,8 C 97 % 1017,7 hPa 0,0 l/m N 0,00 h 0 W/m 0,0 km/h (0 Bft)
19.10.2015 05:00 4,8 C 97 % 1017,8 hPa 0,0 l/m N 0,00 h 0 W/m 0,1 km/h (0 Bft)
19.10.2015 06:00 4,8 C 97 % 1018,0 hPa 0,0 l/m N 0,00 h 0 W/m 0,3 km/h (0 Bft)
19.10.2015 07:00 4,8 C 97 % 1018,0 hPa 0,6 l/m N 0,00 h 0 W/m 0,3 km/h (0 Bft)
19.10.2015 08:00 4,7 C 98 % 1018,6 hPa 0,4 l/m N 0,00 h 6 W/m 0,3 km/h (0 Bft)
19.10.2015 09:00 4,7 C 98 % 1019,0 hPa 0,2 l/m NO 0,00 h 33 W/m 4,1 km/h (1 Bft)
19.10.2015 10:00 4,8 C 98 % 1019,4 hPa 0,2 l/m NO 0,00 h 43 W/m 1,6 km/h (1 Bft)
19.10.2015 11:00 5,7 C 97 % 1019,5 hPa 0,0 l/m NO 0,00 h 106 W/m 3,7 km/h (1 Bft)
19.10.2015 12:00 6,6 C 92 % 1019,6 hPa 0,0 l/m NO 0,08 h 169 W/m 6,0 km/h (2 Bft)
19.10.2015 13:00 6,8 C 89 % 1019,6 hPa 0,0 l/m NO 0,00 h 118 W/m 1,9 km/h (1 Bft)
19.10.2015 14:00 7,2 C 88 % 1019,3 hPa 0,0 l/m N 0,08 h 184 W/m 0,7 km/h (0 Bft)
19.10.2015 15:00 8,2 C 80 % 1019,1 hPa 0,0 l/m N-NO 0,58 h 216 W/m 5,1 km/h (1 Bft)
19.10.2015 16:00 7,6 C 80 % 1018,9 hPa 0,0 l/m N 0,00 h 77 W/m 0,0 km/h (0 Bft)
19.10.2015 17:00 6,9 C 87 % 1018,9 hPa 0,0 l/m N 0,42 h 68 W/m 0,0 km/h (0 Bft)
19.10.2015 18:00 5,7 C 92 % 1019,2 hPa 0,0 l/m N-NO 0,17 h 12 W/m 2,4 km/h (1 Bft)
19.10.2015 19:00 4,1 C 93 % 1019,5 hPa 0,0 l/m N 0,00 h 0 W/m 0,0 km/h (0 Bft)
19.10.2015 20:00 3,1 C 95 % 1019,8 hPa 0,0 l/m N 0,00 h 0 W/m 0,0 km/h (0 Bft)
19.10.2015 21:00 3,1 C 97 % 1019,9 hPa 0,0 l/m N 0,00 h 0 W/m 0,3 km/h (0 Bft)
19.10.2015 22:00 3,1 C 97 % 1019,8 hPa 0,0 l/m N 0,00 h 0 W/m 0,1 km/h (0 Bft)
19.10.2015 23:00 2,8 C 98 % 1019,9 hPa 0,0 l/m N 0,00 h 0 W/m 0,0 km/h (0 Bft)
20.10.2015 00:00 2,6 C 98 % 1020,0 hPa 0,0 l/m N-NO 0,00 h 0 W/m 0,8 km/h (0 Bft)
20.10.2015 01:00 1,6 C 98 % 1020,2 hPa 0,0 l/m N-NO 0,00 h 0 W/m 0,4 km/h (0 Bft)
20.10.2015 02:00 1,6 C 98 % 1020,3 hPa 0,0 l/m N-NO 0,00 h 0 W/m 2,4 km/h (1 Bft)
20.10.2015 03:00 0,7 C 98 % 1020,3 hPa 0,0 l/m N 0,00 h 0 W/m 0,0 km/h (0 Bft)
20.10.2015 04:00 0,5 C 99 % 1020,3 hPa 0,0 l/m N 0,00 h 0 W/m 0,0 km/h (0 Bft)
20.10.2015 05:00 0,8 C 99 % 1020,3 hPa 0,0 l/m N 0,00 h 0 W/m 0,0 km/h (0 Bft)
20.10.2015 06:00 0,8 C 99 % 1020,3 hPa 0,0 l/m N 0,00 h 0 W/m 0,0 km/h (0 Bft)
20.10.2015 07:00 0,7 C 99 % 1020,0 hPa 0,0 l/m N-NO 0,00 h 5 W/m 2,3 km/h (1 Bft)
20.10.2015 08:00 0,6 C 99 % 1020,6 hPa 0,0 l/m N-NO 0,00 h 21 W/m 3,1 km/h (1 Bft)
20.10.2015 09:00 1,1 C 99 % 1021,0 hPa 0,0 l/m N-NO 0,00 h 61 W/m 0,8 km/h (0 Bft)
20.10.2015 10:00 2,1 C 100 % 1021,5 hPa 0,0 l/m N-NO 0,00 h 127 W/m 3,6 km/h (1 Bft)
20.10.2015 11:00 3,2 C 100 % 1021,7 hPa 0,0 l/m N 0,25 h 248 W/m 0,5 km/h (0 Bft)
20.10.2015 12:00 5,3 C 100 % 1021,6 hPa 0,0 l/m NO 1,00 h 501 W/m 3,3 km/h (1 Bft)
20.10.2015 13:00 7,2 C 96 % 1021,4 hPa 0,0 l/m W 0,92 h 505 W/m 6,3 km/h (2 Bft)
20.10.2015 14:00 8,9 C 80 % 1020,8 hPa 0,0 l/m S 0,75 h 409 W/m 2,3 km/h (1 Bft)
20.10.2015 15:00 9,5 C 74 % 1020,5 hPa 0,0 l/m S 0,75 h 294 W/m 6,3 km/h (2 Bft)
20.10.2015 16:00 9,6 C 70 % 1020,4 hPa 0,0 l/m O-NO 0,75 h 236 W/m 6,8 km/h (2 Bft)
20.10.2015 17:00 9,0 C 73 % 1020,8 hPa 0,0 l/m O-NO 0,08 h 44 W/m 2,5 km/h (1 Bft)
20.10.2015 18:00 7,9 C 83 % 1021,4 hPa 0,0 l/m N 0,00 h 5 W/m 0,0 km/h (0 Bft)
20.10.2015 19:00 7,3 C 88 % 1021,8 hPa 0,0 l/m N 0,00 h 0 W/m 0,3 km/h (0 Bft)
20.10.2015 20:00 7,0 C 92 % 1021,8 hPa 0,0 l/m N 0,00 h 0 W/m 0,0 km/h (0 Bft)
20.10.2015 21:00 6,7 C 94 % 1021,7 hPa 0,0 l/m N 0,00 h 0 W/m 0,0 km/h (0 Bft)
20.10.2015 22:00 6,4 C 95 % 1021,6 hPa 0,0 l/m N 0,00 h 0 W/m 0,9 km/h (0 Bft)
20.10.2015 23:00 6,2 C 95 % 1021,5 hPa 0,0 l/m N 0,00 h 0 W/m 0,0 km/h (0 Bft)
21.10.2015 00:00 6,0 C 96 % 1021,3 hPa 0,0 l/m N 0,00 h 0 W/m 0,0 km/h (0 Bft)
21.10.2015 01:00 6,0 C 97 % 1021,0 hPa 0,0 l/m N 0,00 h 0 W/m 0,0 km/h (0 Bft)
21.10.2015 02:00 5,7 C 97 % 1020,8 hPa 0,0 l/m N 0,00 h 0 W/m 0,5 km/h (0 Bft)
21.10.2015 03:00 5,3 C 97 % 1020,8 hPa 0,0 l/m O 0,00 h 0 W/m 1,5 km/h (1 Bft)
21.10.2015 04:00 5,5 C 97 % 1020,6 hPa 0,0 l/m O-NO 0,00 h 0 W/m 2,1 km/h (1 Bft)
21.10.2015 05:00 5,7 C 96 % 1020,5 hPa 0,0 l/m O-NO 0,00 h 0 W/m 3,6 km/h (1 Bft)
21.10.2015 06:00 5,7 C 95 % 1020,4 hPa 0,0 l/m O-NO 0,00 h 0 W/m 3,3 km/h (1 Bft)
21.10.2015 07:00 5,7 C 93 % 1020,1 hPa 0,0 l/m O-NO 0,00 h 0 W/m 4,3 km/h (1 Bft)
21.10.2015 08:00 5,8 C 92 % 1020,3 hPa 0,0 l/m O-NO 0,00 h 12 W/m 3,3 km/h (1 Bft)
21.10.2015 09:00 6,0 C 92 % 1020,6 hPa 0,0 l/m O-NO 0,00 h 35 W/m 4,3 km/h (1 Bft)
21.10.2015 10:00 6,4 C 87 % 1020,4 hPa 0,0 l/m O 0,00 h 84 W/m 10,4 km/h (2 Bft)
21.10.2015 11:00 7,0 C 84 % 1020,5 hPa 0,0 l/m O 0,00 h 152 W/m 9,3 km/h (2 Bft)
21.10.2015 12:00 7,7 C 81 % 1020,3 hPa 0,0 l/m O-NO 0,08 h 153 W/m 9,9 km/h (2 Bft)
21.10.2015 13:00 8,2 C 79 % 1019,7 hPa 0,0 l/m O-NO 0,08 h 219 W/m 11,0 km/h (2 Bft)
21.10.2015 14:00 8,7 C 76 % 1019,2 hPa 0,0 l/m N-NO 0,33 h 249 W/m 10,7 km/h (2 Bft)
21.10.2015 15:00 9,2 C 74 % 1018,7 hPa 0,0 l/m NO 0,75 h 343 W/m 7,5 km/h (2 Bft)
21.10.2015 16:00 9,6 C 72 % 1018,4 hPa 0,0 l/m O-SO 1,00 h 268 W/m 5,9 km/h (2 Bft)
21.10.2015 17:00 8,3 C 76 % 1018,6 hPa 0,0 l/m N 0,08 h 47 W/m 0,8 km/h (0 Bft)
21.10.2015 18:00 6,4 C 87 % 1018,6 hPa 0,0 l/m N 0,08 h 11 W/m 0,1 km/h (0 Bft)
21.10.2015 19:00 4,7 C 91 % 1018,7 hPa 0,0 l/m N 0,00 h 0 W/m 0,0 km/h (0 Bft)
21.10.2015 20:00 3,7 C 94 % 1018,6 hPa 0,0 l/m N 0,00 h 0 W/m 0,0 km/h (0 Bft)
21.10.2015 21:00 2,8 C 95 % 1018,7 hPa 0,0 l/m N 0,00 h 0 W/m 0,0 km/h (0 Bft)
21.10.2015 22:00 3,3 C 97 % 1018,7 hPa 0,0 l/m N 0,00 h 0 W/m 0,0 km/h (0 Bft)
21.10.2015 23:00 3,8 C 97 % 1018,5 hPa 0,0 l/m N 0,00 h 0 W/m 0,0 km/h (0 Bft)
22.10.2015 00:00 4,1 C 97 % 1018,3 hPa 0,0 l/m O-SO 0,00 h 0 W/m 1,2 km/h (1 Bft)
22.10.2015 01:00 4,6 C 97 % 1018,1 hPa 0,0 l/m N 0,00 h 0 W/m 0,9 km/h (0 Bft)
22.10.2015 02:00 4,4 C 96 % 1017,8 hPa 0,0 l/m O-SO 0,00 h 0 W/m 0,8 km/h (0 Bft)
22.10.2015 03:00 3,8 C 97 % 1017,8 hPa 0,0 l/m N 0,00 h 0 W/m 0,0 km/h (0 Bft)
22.10.2015 04:00 3,2 C 97 % 1017,5 hPa 0,0 l/m N 0,00 h 0 W/m 0,1 km/h (0 Bft)
22.10.2015 05:00 2,6 C 97 % 1017,4 hPa 0,0 l/m N 0,00 h 0 W/m 0,0 km/h (0 Bft)
22.10.2015 06:00 3,1 C 98 % 1017,6 hPa 0,0 l/m N 0,00 h 0 W/m 0,0 km/h (0 Bft)
22.10.2015 07:00 3,6 C 98 % 1017,6 hPa 0,0 l/m O-SO 0,00 h 0 W/m 1,5 km/h (1 Bft)
22.10.2015 08:00 4,2 C 98 % 1017,6 hPa 0,0 l/m O-SO 0,00 h 19 W/m 8,0 km/h (2 Bft)
22.10.2015 09:00 5,0 C 96 % 1018,0 hPa 0,0 l/m SO 0,00 h 79 W/m 7,5 km/h (2 Bft)
22.10.2015 10:00 6,2 C 93 % 1018,3 hPa 0,0 l/m S 0,00 h 134 W/m 10,2 km/h (2 Bft)
22.10.2015 11:00 7,9 C 85 % 1018,3 hPa 0,0 l/m W-SW 0,58 h 328 W/m 16,0 km/h (3 Bft)
22.10.2015 12:00 9,0 C 77 % 1018,2 hPa 0,0 l/m W-SW 0,17 h 244 W/m 17,6 km/h (3 Bft)
22.10.2015 13:00 9,8 C 74 % 1017,8 hPa 0,0 l/m W-SW 0,42 h 297 W/m 18,0 km/h (3 Bft)
22.10.2015 14:00 9,8 C 73 % 1017,7 hPa 0,0 l/m W-SW 0,00 h 135 W/m 18,0 km/h (3 Bft)
22.10.2015 15:00 9,8 C 76 % 1017,7 hPa 0,0 l/m W-SW 0,00 h 90 W/m 14,8 km/h (3 Bft)
22.10.2015 16:00 9,5 C 78 % 1017,9 hPa 0,0 l/m W-SW 0,00 h 44 W/m 15,7 km/h (3 Bft)
22.10.2015 17:00 8,9 C 85 % 1018,5 hPa 0,0 l/m SW 0,00 h 27 W/m 12,9 km/h (3 Bft)
22.10.2015 18:00 8,4 C 88 % 1019,1 hPa 0,0 l/m SW 0,00 h 6 W/m 11,8 km/h (2 Bft)
22.10.2015 19:00 8,2 C 88 % 1019,6 hPa 0,0 l/m SW 0,00 h 0 W/m 10,8 km/h (2 Bft)
22.10.2015 20:00 7,9 C 90 % 1020,0 hPa 0,0 l/m SW 0,00 h 0 W/m 8,6 km/h (2 Bft)
22.10.2015 21:00 7,7 C 93 % 1020,5 hPa 0,0 l/m SW 0,00 h 0 W/m 9,3 km/h (2 Bft)
22.10.2015 22:00 7,8 C 92 % 1020,9 hPa 0,0 l/m SW 0,00 h 0 W/m 5,2 km/h (1 Bft)
22.10.2015 23:00 7,8 C 93 % 1021,4 hPa 0,0 l/m SW 0,00 h 0 W/m 5,6 km/h (1 Bft)
23.10.2015 00:00 7,5 C 96 % 1021,6 hPa 0,0 l/m SW 0,00 h 0 W/m 6,0 km/h (2 Bft)
23.10.2015 01:00 7,4 C 97 % 1021,6 hPa 0,2 l/m SW 0,00 h 0 W/m 9,1 km/h (2 Bft)
23.10.2015 02:00 7,6 C 98 % 1022,0 hPa 0,0 l/m SW 0,00 h 0 W/m 10,4 km/h (2 Bft)
23.10.2015 03:00 7,6 C 98 % 1022,2 hPa 0,0 l/m SW 0,00 h 0 W/m 3,1 km/h (1 Bft)
23.10.2015 04:00 7,7 C 99 % 1022,2 hPa 0,2 l/m SW 0,00 h 0 W/m 1,9 km/h (1 Bft)
23.10.2015 05:00 7,7 C 99 % 1022,3 hPa 0,0 l/m SW 0,00 h 0 W/m 3,9 km/h (1 Bft)
23.10.2015 06:00 7,8 C 99 % 1022,7 hPa 0,0 l/m SW 0,00 h 0 W/m 3,2 km/h (1 Bft)
23.10.2015 07:00 7,8 C 99 % 1023,0 hPa 0,0 l/m N 0,00 h 0 W/m 0,5 km/h (0 Bft)
23.10.2015 08:00 7,9 C 99 % 1023,2 hPa 0,0 l/m N 0,00 h 20 W/m 0,5 km/h (0 Bft)
23.10.2015 09:00 8,3 C 100 % 1023,6 hPa 0,0 l/m N 0,00 h 57 W/m 0,0 km/h (0 Bft)
23.10.2015 10:00 8,9 C 99 % 1023,9 hPa 0,0 l/m N 0,00 h 93 W/m 0,0 km/h (0 Bft)
23.10.2015 11:00 9,9 C 97 % 1023,8 hPa 0,0 l/m N 0,08 h 215 W/m 0,0 km/h (0 Bft)
23.10.2015 12:00 11,2 C 90 % 1023,7 hPa 0,0 l/m SW 0,00 h 168 W/m 3,9 km/h (1 Bft)
23.10.2015 13:00 11,6 C 87 % 1023,3 hPa 0,0 l/m W 0,00 h 159 W/m 5,9 km/h (2 Bft)
23.10.2015 14:00 11,9 C 86 % 1022,6 hPa 0,0 l/m NO 0,00 h 125 W/m 8,6 km/h (2 Bft)
23.10.2015 15:00 12,2 C 83 % 1022,1 hPa 0,0 l/m O-NO 0,08 h 142 W/m 8,8 km/h (2 Bft)
23.10.2015 16:00 12,3 C 82 % 1021,5 hPa 0,0 l/m O-NO 0,00 h 67 W/m 11,6 km/h (2 Bft)
23.10.2015 17:00 12,0 C 83 % 1021,5 hPa 0,0 l/m O-NO 0,00 h 24 W/m 9,4 km/h (2 Bft)
23.10.2015 18:00 11,4 C 85 % 1021,4 hPa 0,0 l/m O-NO 0,00 h 6 W/m 6,2 km/h (2 Bft)
23.10.2015 19:00 10,1 C 89 % 1021,3 hPa 0,0 l/m O-NO 0,00 h 0 W/m 3,5 km/h (1 Bft)
23.10.2015 20:00 8,4 C 93 % 1021,0 hPa 0,0 l/m O-NO 0,00 h 0 W/m 1,9 km/h (1 Bft)
23.10.2015 21:00 7,7 C 96 % 1020,7 hPa 0,0 l/m N 0,00 h 0 W/m 1,7 km/h (1 Bft)
23.10.2015 22:00 7,0 C 97 % 1020,5 hPa 0,0 l/m O-NO 0,00 h 0 W/m 2,9 km/h (1 Bft)
23.10.2015 23:00 6,5 C 98 % 1020,5 hPa 0,0 l/m N 0,00 h 0 W/m 3,1 km/h (1 Bft)
24.10.2015 00:00 6,0 C 98 % 1020,7 hPa 0,0 l/m O-NO 0,00 h 0 W/m 1,5 km/h (1 Bft)
24.10.2015 01:00 5,9 C 98 % 1020,5 hPa 0,0 l/m N 0,00 h 0 W/m 1,1 km/h (0 Bft)
24.10.2015 02:00 5,7 C 99 % 1020,4 hPa 0,0 l/m N 0,00 h 0 W/m 0,0 km/h (0 Bft)
24.10.2015 03:00 6,0 C 99 % 1019,8 hPa 0,0 l/m N 0,00 h 0 W/m 0,0 km/h (0 Bft)
24.10.2015 04:00 6,3 C 99 % 1019,4 hPa 0,0 l/m N 0,00 h 0 W/m 0,4 km/h (0 Bft)
24.10.2015 05:00 6,6 C 99 % 1019,2 hPa 0,0 l/m N 0,00 h 0 W/m 0,0 km/h (0 Bft)
24.10.2015 06:00 6,4 C 100 % 1019,4 hPa 0,0 l/m N 0,00 h 0 W/m 0,4 km/h (0 Bft)
24.10.2015 07:00 6,5 C 100 % 1019,3 hPa 0,0 l/m N 0,00 h 0 W/m 0,1 km/h (0 Bft)
24.10.2015 08:00 6,6 C 100 % 1019,1 hPa 0,0 l/m N 0,00 h 13 W/m 1,3 km/h (1 Bft)
24.10.2015 09:00 7,6 C 100 % 1019,5 hPa 0,0 l/m SO 0,33 h 112 W/m 5,6 km/h (1 Bft)
24.10.2015 10:00 8,9 C 98 % 1019,2 hPa 0,0 l/m S-SW 0,67 h 276 W/m 8,9 km/h (2 Bft)
24.10.2015 11:00 10,3 C 93 % 1019,0 hPa 0,0 l/m S-SW 0,92 h 367 W/m 6,1 km/h (2 Bft)
24.10.2015 12:00 11,4 C 89 % 1018,6 hPa 0,0 l/m S-SW 1,00 h 412 W/m 6,2 km/h (2 Bft)
24.10.2015 13:00 13,1 C 84 % 1018,1 hPa 0,0 l/m S-SW 1,00 h 391 W/m 8,0 km/h (2 Bft)
24.10.2015 14:00 14,5 C 80 % 1017,7 hPa 0,0 l/m S 1,00 h 349 W/m 9,4 km/h (2 Bft)
24.10.2015 15:00 14,8 C 81 % 1017,5 hPa 0,0 l/m SW 0,33 h 197 W/m 11,2 km/h (2 Bft)
24.10.2015 16:00 14,2 C 81 % 1017,4 hPa 0,0 l/m SW 0,50 h 143 W/m 12,2 km/h (2 Bft)
24.10.2015 17:00 13,3 C 85 % 1017,4 hPa 0,0 l/m S-SW 0,00 h 35 W/m 2,5 km/h (1 Bft)
24.10.2015 18:00 11,5 C 90 % 1017,8 hPa 0,0 l/m S-SW 0,00 h 6 W/m 1,6 km/h (1 Bft)
24.10.2015 19:00 9,8 C 95 % 1018,2 hPa 0,0 l/m N 0,00 h 0 W/m 0,0 km/h (0 Bft)
24.10.2015 20:00 9,5 C 95 % 1018,4 hPa 0,0 l/m S-SW 0,00 h 0 W/m 2,3 km/h (1 Bft)
24.10.2015 21:00 8,8 C 96 % 1018,6 hPa 0,0 l/m N 0,00 h 0 W/m 0,3 km/h (0 Bft)
24.10.2015 22:00 8,3 C 96 % 1018,9 hPa 0,0 l/m S-SW 0,00 h 0 W/m 0,9 km/h (0 Bft)
24.10.2015 23:00 7,5 C 97 % 1019,3 hPa 0,0 l/m N 0,00 h 0 W/m 0,0 km/h (0 Bft)
25.10.2015 00:00 7,3 C 98 % 1019,8 hPa 0,0 l/m N 0,00 h 0 W/m 0,3 km/h (0 Bft)
25.10.2015 01:00 7,0 C 98 % 1020,3 hPa 0,0 l/m N 0,00 h 0 W/m 0,0 km/h (0 Bft)
25.10.2015 02:00 6,6 C 98 % 1020,4 hPa 0,0 l/m N 0,00 h 0 W/m 0,0 km/h (0 Bft)
25.10.2015 03:00 7,1 C 99 % 1020,4 hPa 0,0 l/m N 0,00 h 0 W/m 0,4 km/h (0 Bft)
25.10.2015 04:00 6,4 C 98 % 1020,7 hPa 0,0 l/m N 0,00 h 0 W/m 0,0 km/h (0 Bft)
25.10.2015 05:00 6,7 C 99 % 1021,2 hPa 0,0 l/m N 0,00 h 0 W/m 0,5 km/h (0 Bft)
25.10.2015 06:00 7,0 C 99 % 1021,4 hPa 0,0 l/m S-SW 0,00 h 0 W/m 2,7 km/h (1 Bft)
25.10.2015 07:00 7,3 C 99 % 1022,2 hPa 0,0 l/m S-SW 0,00 h 12 W/m 1,1 km/h (0 Bft)
25.10.2015 08:00 8,2 C 98 % 1023,3 hPa 0,0 l/m N 0,00 h 52 W/m 0,7 km/h (0 Bft)
25.10.2015 09:00 9,8 C 97 % 1023,6 hPa 0,0 l/m S-SW 0,08 h 135 W/m 3,5 km/h (1 Bft)
25.10.2015 10:00 11,7 C 92 % 1023,8 hPa 0,0 l/m S-SW 0,42 h 272 W/m 9,8 km/h (2 Bft)
25.10.2015 11:00 13,1 C 86 % 1023,7 hPa 0,0 l/m S 0,08 h 226 W/m 5,3 km/h (1 Bft)
25.10.2015 12:00 13,9 C 82 % 1023,1 hPa 0,0 l/m S-SW 0,33 h 252 W/m 2,5 km/h (1 Bft)
25.10.2015 13:00 14,2 C 80 % 1022,8 hPa 0,0 l/m N 0,00 h 135 W/m 6,6 km/h (2 Bft)
25.10.2015 14:00 14,6 C 76 % 1022,7 hPa 0,0 l/m N 0,33 h 199 W/m 7,0 km/h (2 Bft)
25.10.2015 15:00 14,9 C 72 % 1022,6 hPa 0,0 l/m N-NO 0,67 h 199 W/m 7,6 km/h (2 Bft)
25.10.2015 16:00 13,5 C 80 % 1022,7 hPa 0,0 l/m NO 0,67 h 70 W/m 9,7 km/h (2 Bft)
25.10.2015 17:00 11,6 C 86 % 1023,1 hPa 0,0 l/m N 0,00 h 7 W/m 0,8 km/h (0 Bft)
25.10.2015 18:00 10,7 C 90 % 1023,5 hPa 0,0 l/m N 0,00 h 0 W/m 0,9 km/h (0 Bft)
25.10.2015 19:00 9,3 C 93 % 1023,5 hPa 0,0 l/m N 0,00 h 0 W/m 0,0 km/h (0 Bft)
25.10.2015 20:00 8,4 C 96 % 1023,4 hPa 0,0 l/m NO 0,00 h 0 W/m 0,8 km/h (0 Bft)
25.10.2015 21:00 8,6 C 97 % 1023,5 hPa 0,0 l/m NO 0,00 h 0 W/m 2,3 km/h (1 Bft)
25.10.2015 22:00 8,5 C 97 % 1023,1 hPa 0,0 l/m NO 0,00 h 0 W/m 3,6 km/h (1 Bft)
25.10.2015 23:00 9,0 C 97 % 1022,4 hPa 0,0 l/m NO 0,00 h 0 W/m 3,5 km/h (1 Bft)
Min-Datum _ 20.10.15 20.10.15 24.10.15 - - - - 19.10.15
_ Min-Zeit 04:05 16:10 16:25 - - - - 00:00
Minimum _ 0,2 C 69 % 1017,2 hPa - - - - 0,0 km/h (0 Bft)
Max-Datum _ 25.10.15 19.10.15 23.10.15 19.10.15 - 19.10.15 20.10.15 22.10.15
_ Max-Zeit 15:20 00:55 10:20 07:10 - 12:20 12:55 13:10
Maximum _ 15,1 C 100 % 1024,0 hPa 0,6 l/m - 0,08 h 631 W/m 24,1 km/h
W-SW (4 Bft)
Durchschnitt _ 7,2 C 92 % 1020,2 hPa #1,8 l/m SW #17:55 h 146 W/m 3,7 km/h (1 Bft)